Simultaneous Nadir Overpasses (SNOs) Predictions

Prediction of SNOs near equator between AQUA and NPP Satellite Orbit:

Table of predicted SNOs near equator for the next 14.0 days since TLE Epoch: 3/12/2016
Index Date (AQUA) Time (AQUA) AQUA Lat,Lon Date (NPP) Time (NPP) NPP Lat,Lon Distance(km) Time Diff (sec)
1 03/13/2016 00:09:03 -3.51, 21.19 03/12/2016 23:59:48 -3.48, 21.12 8.72 555
2 03/13/2016 00:57:18 -1.09,-170.21 03/13/2016 00:49:19 -1.14,-170.56 38.83 479
3 03/13/2016 01:45:25 5.62, -1.58 03/13/2016 01:38:41 5.74, -2.19 68.49 404
4 03/13/2016 02:33:41 -10.16, 167.01 03/13/2016 02:28:12 -10.35, 166.15 97.29 329
5 03/15/2016 15:42:35 26.63, -35.81 03/15/2016 15:32:35 26.65, -35.94 12.40 600
6 03/15/2016 16:25:13 -2.24, 137.34 03/15/2016 16:16:19 -2.19, 137.18 17.74 534
7 03/15/2016 17:13:28 -2.36, -54.07 03/15/2016 17:05:50 -2.42, -54.49 47.90 458
8 03/15/2016 18:01:34 6.89, 114.56 03/15/2016 17:55:11 7.02, 113.87 77.35 383
9 03/18/2016 07:53:48 7.53, 84.42 03/18/2016 07:44:01 7.52, 84.43 0.86 587
10 03/18/2016 08:41:21 -0.93,-106.51 03/18/2016 08:32:49 -0.91,-106.75 27.17 512
11 03/18/2016 09:29:36 -3.66, 62.09 03/18/2016 09:22:19 -3.76, 61.58 56.94 437
12 03/18/2016 10:17:44 8.14,-129.30 03/18/2016 10:11:42 8.31,-130.06 86.29 362
13 03/21/2016 00:09:22 4.13,-158.97 03/20/2016 23:59:56 4.13,-159.03 6.27 566
14 03/21/2016 00:57:30 0.35, 9.64 03/21/2016 00:49:19 0.42, 9.32 36.38 491
15 03/21/2016 01:45:46 -4.88, 178.22 03/21/2016 01:38:50 -5.03, 177.65 66.31
